Home   Weather   Cruzeiro do Sul   Past weeks

Flag for Brazil Past Weather in Cruzeiro do Sul, Acre, Brazil — Yesterday and Last 2 Weeks

Now
75 °F

Partly cloudy.


Feels Like: 73 °F
Forecast: 74 / 85 °F
Wind: No wind

Location: Cruzeiro Do Sul Airport

Current Time: Apr 26, 2017 at 10:51:52 pm

Latest Report: Apr 26, 2017 at 10:00 pm


Visibility: N/A

Pressure: 29.89 "Hg

Humidity: 100%

Dew Point: 75 °F

Location of Cruzeiro do SulLocation

Past Weather in Cruzeiro do Sul — Graph

°F

Cruzeiro do Sul Temperature Yesterday

Maximum temperature yesterday: 91 °F (at 2:00 pm)
Minimum temperature yesterday: 73 °F (at 2:00 am)
Average temperature yesterday: 82 °F

High & Low Weather Summary for the Past Weeks

 TemperatureHumidityPressure
High93 °F (Apr 15, 4:00 pm)100% (Apr 12, 12:00 am)30.01 "Hg (Apr 12, 12:00 am)
Low68 °F (Apr 16, 1:00 am)25% (Apr 13, 1:00 am)29.71 "Hg (Apr 20, 5:00 pm)
Average79 °F85%29.88 "Hg
* Reported Apr 11 10:00 pm — Apr 26 10:00 pm, Cruzeiro do Sul, Weather by CustomWeather, © 2017

Note: Actual official high and low records may vary slightly from our data, if they occured in-between our weather recording intervals... More about our weather records

Advertising

Cruzeiro do Sul Weather History for the Previous 24 Hours

Scroll right to see more
 ConditionsComfort  
Time TempWeatherWind HumidityBarometerVisibility
10:00 pm
Wed, Apr 26
75 °FPartly cloudy.No wind100%29.89 "HgN/A
9:00 pm75 °FThunderstorms. Mostly cloudy.No wind100%N/A3 mi
8:00 pm75 °FThunderstorms. Mostly cloudy.3 mph100%N/A3 mi
7:00 pm77 °FThunderstorms. Mostly cloudy.7 mph94%N/A3 mi
6:00 pm84 °FThunderstorms. Mostly cloudy.10 mph79%29.77 "HgN/A
5:00 pm84 °FPartly sunny.6 mph79%29.77 "HgN/A
4:00 pm88 °FPartly sunny.5 mph66%29.77 "HgN/A
3:00 pm88 °FBroken clouds.3 mph66%29.74 "HgN/A
2:00 pm90 °FPartly sunny.3 mph55%29.77 "HgN/A
1:00 pm88 °FPartly sunny.5 mph70%29.83 "HgN/A
12:00 pm88 °FBroken clouds.2 mph66%29.89 "HgN/A
11:00 am88 °FBroken clouds.3 mph66%29.89 "HgN/A
10:00 am86 °FScattered clouds.2 mph70%29.92 "HgN/A
9:00 am84 °FScattered clouds.5 mph79%29.92 "HgN/A
8:15 am82 °FScattered clouds.3 mph84%29.89 "HgN/A
5:00 am75 °FFog.1 mph94%29.80 "Hg1 mi
4:15 am75 °FFog.1 mph100%29.80 "Hg1 mi
4:00 am75 °FPassing clouds.1 mph100%29.80 "HgN/A
3:00 am75 °FFog.No wind100%29.80 "Hg2 mi
2:00 am75 °FFog.2 mph100%29.83 "Hg2 mi
1:00 am77 °FPassing clouds.5 mph94%29.83 "HgN/A
12:00 am77 °FOvercast.2 mph94%29.86 "HgN/A
11:00 pm
Tue, Apr 25
77 °FOvercast.3 mph94%29.86 "HgN/A
10:00 pm77 °FPassing clouds.3 mph94%29.83 "HgN/A
Weather by CustomWeather, © 2017

See weather overviewHow to use our weather pages